Home > Weather > Nouakchott > Past weeks

Flag for Mauritania Weather for the Past 2 Weeks in Nouakchott, Mauritania

Now
86 °F

Clear.


Feels Like: 83 °F
Forecast: 71 / 90 °F
Wind: 15 mph from East

Location: Nouakchott Airport

Current Time: Feb 13, 2016 at 1:01:38 PM

Latest Report: Feb 13, 2016 at 12:30 PM


Visibility: 5 mi

Pressure: 30.01 "Hg

Humidity: 20%

Dew point: 41 °F

Location of NouakchottLocation

Historic Weather in Nouakchott — Graph

°F

Nouakchott Temperature Yesterday

Maximum temperature yesterday: 91 °F (at 5:00 PM)
Minimum temperature yesterday: 66 °F (at 4:00 AM)
Average temperature yesterday: 77 °F

High & Low Weather Summary for the Past Weeks

 TemperatureHumidityPressure
High99 °F (Feb 7, 4:00 PM)39% (Feb 12, 9:30 PM)30.15 "Hg (Feb 12, 9:30 PM)
Low61 °F (Feb 3, 7:30 AM)6% (Feb 4, 3:00 PM)29.89 "Hg (Feb 3, 3:30 PM)
Average80 °F14%30.01 "Hg
* Reported Jan 29 12:00 Noon — Feb 13 12:00 Noon, Nouakchott, Weather by CustomWeather, © 2016

Note: Actual official high and low records may vary slightly from our data, if they occured in-between our weather recording intervals... More about our weather records

Advertising

Nouakchott Weather History for the Previous 24 Hours

 ConditionsComfort  
Time TempWeatherWind HumidityBarometerVisibility
12:00 PM
Sat, Feb 13
82 °FClear.14 mph23%30.01 "Hg5 mi
11:30 AM82 °FClear.13 mph23%30.04 "Hg5 mi
11:00 AM81 °FClear.9 mph24%30.04 "Hg5 mi
10:30 AM77 °FClear.9 mph28%30.04 "Hg5 mi
10:00 AM73 °FClear.8 mph31%30.04 "Hg5 mi
9:30 AM72 °FClear.8 mph33%30.04 "Hg5 mi
9:00 AM70 °FClear.8 mph35%30.01 "Hg5 mi
8:30 AM68 °FClear.8 mph35%30.01 "Hg5 mi
8:00 AM66 °FClear.9 mph37%30.01 "Hg5 mi
7:30 AM68 °FClear.10 mph35%29.98 "Hg5 mi
7:00 AM70 °FClear.12 mph33%29.98 "Hg5 mi
6:30 AM70 °FClear.12 mph33%29.98 "Hg5 mi
6:00 AM72 °FClear.13 mph31%29.98 "Hg5 mi
5:30 AM72 °FClear.9 mph31%29.98 "Hg5 mi
5:00 AM72 °FClear.8 mph31%29.98 "Hg5 mi
4:30 AM72 °FClear.9 mph29%29.98 "Hg5 mi
4:00 AM73 °FClear.8 mph27%29.98 "Hg5 mi
3:30 AM73 °FClear.10 mph29%29.98 "Hg5 mi
3:00 AM73 °FClear.12 mph29%29.98 "Hg5 mi
2:30 AM73 °FClear.9 mph29%30.01 "Hg5 mi
2:00 AM75 °FClear.10 mph25%30.01 "Hg5 mi
1:30 AM75 °FClear.9 mph25%30.01 "Hg5 mi
1:00 AM77 °FClear.9 mph24%30.01 "Hg5 mi
12:30 AM77 °FClear.12 mph24%30.01 "Hg5 mi
12:00 AM77 °FClear.9 mph22%30.01 "Hg5 mi
11:00 PM
Fri, Feb 12
77 °FClear.8 mph19%30.04 "Hg5 mi
10:30 PM77 °FClear.8 mph18%30.01 "Hg5 mi
10:00 PM77 °FClear.5 mph32%30.01 "Hg5 mi
9:30 PM77 °FClear.2 mph39%30.01 "Hg5 mi
9:00 PM79 °FClear.5 mph23%30.01 "Hg5 mi
8:30 PM79 °FClear.3 mph24%29.98 "Hg5 mi
8:00 PM79 °FClear.6 mph16%29.98 "Hg5 mi
7:30 PM82 °FClear.7 mph14%29.98 "Hg5 mi
7:00 PM86 °FClear.8 mph11%29.98 "Hg4 mi
6:30 PM88 °FClear.12 mph11%29.95 "Hg4 mi
6:00 PM88 °FClear.12 mph10%29.95 "Hg4 mi
5:30 PM90 °FClear.12 mph11%29.95 "Hg4 mi
5:00 PM91 °FClear.13 mph10%29.95 "Hg4 mi
4:30 PM90 °FClear.13 mph11%29.95 "Hg4 mi
4:00 PM90 °FClear.15 mph11%29.95 "Hg4 mi
3:30 PM90 °FClear.15 mph11%29.95 "Hg4 mi
3:00 PM88 °FClear.16 mph13%29.95 "Hg4 mi
2:30 PM88 °FClear.17 mph13%29.98 "Hg4 mi
2:00 PM90 °FClear.17 mph13%29.98 "Hg4 mi
1:30 PM88 °FClear.18 mph13%30.01 "Hg4 mi
1:00 PM84 °FClear.21 mph14%30.01 "Hg4 mi
Weather by CustomWeather, © 2016

See weather overviewHow to use our weather pages